owner,sensor,date,latitude,longitude,air_temperature,qcFlag 
DISL,ioos:station:DISL:KATA:1,2013-04-01T00:00:00Z,30.2583,-88.2131,20.03,1111122 
DISL,ioos:station:DISL:KATA:1,2013-04-01T00:30:00Z,30.2583,-88.2131,20.2,1111122 
DISL,ioos:station:DISL:KATA:1,2013-04-01T01:00:00Z,30.2583,-88.2131,17.93,1111122 
DISL,ioos:station:DISL:KATA:1,2013-04-01T01:30:00Z,30.2583,-88.2131,17.7,1111122 
DISL,ioos:station:DISL:KATA:1,2013-04-01T02:00:00Z,30.2583,-88.2131,17.97,1111122 
DISL,ioos:station:DISL:KATA:1,2013-04-01T02:30:00Z,30.2583,-88.2131,18.62,1111122 
DISL,ioos:station:DISL:KATA:1,2013-04-01T03:00:00Z,30.2583,-88.2131,18.79,1111122 
DISL,ioos:station:DISL:KATA:1,2013-04-01T03:30:00Z,30.2583,-88.2131,19.02,1111122 
DISL,ioos:station:DISL:KATA:1,2013-04-01T04:00:00Z,30.2583,-88.2131,18.99,1111122 
DISL,ioos:station:DISL:KATA:1,2013-04-01T04:30:00Z,30.2583,-88.2131,19.02,1111122 
DISL,ioos:station:DISL:KATA:1,2013-04-01T05:00:00Z,30.2583,-88.2131,19.06,1111122 
DISL,ioos:station:DISL:KATA:1,2013-04-01T05:30:00Z,30.2583,-88.2131,18.99,1111122 
DISL,ioos:station:DISL:KATA:1,2013-04-01T06:00:00Z,30.2583,-88.2131,18.89,1111122 
DISL,ioos:station:DISL:KATA:1,2013-04-01T06:30:00Z,30.2583,-88.2131,18.72,1111122 
DISL,ioos:station:DISL:KATA:1,2013-04-01T07:00:00Z,30.2583,-88.2131,17.5,1111122 
DISL,ioos:station:DISL:KATA:1,2013-04-01T07:30:00Z,30.2583,-88.2131,17.43,1111122 
DISL,ioos:station:DISL:KATA:1,2013-04-01T08:00:00Z,30.2583,-88.2131,17.36,1111122 
DISL,ioos:station:DISL:KATA:1,2013-04-01T08:30:00Z,30.2583,-88.2131,17.39,1111122 
DISL,ioos:station:DISL:KATA:1,2013-04-01T09:00:00Z,30.2583,-88.2131,17.29,1111122 
DISL,ioos:station:DISL:KATA:1,2013-04-01T09:30:00Z,30.2583,-88.2131,17.39,1111122 
DISL,ioos:station:DISL:KATA:1,2013-04-01T10:00:00Z,30.2583,-88.2131,17.43,1111122 
DISL,ioos:station:DISL:KATA:1,2013-04-01T10:30:00Z,30.2583,-88.2131,17.36,1111122 
DISL,ioos:station:DISL:KATA:1,2013-04-01T11:00:00Z,30.2583,-88.2131,17.19,1111122 
DISL,ioos:station:DISL:KATA:1,2013-04-01T11:30:00Z,30.2583,-88.2131,17.26,1111122 
DISL,ioos:station:DISL:KATA:1,2013-04-01T12:00:00Z,30.2583,-88.2131,17.06,1111122 
DISL,ioos:station:DISL:KATA:1,2013-04-01T12:30:00Z,30.2583,-88.2131,17.09,1111122 
DISL,ioos:station:DISL:KATA:1,2013-04-01T13:00:00Z,30.2583,-88.2131,16.48,1111122 
DISL,ioos:station:DISL:KATA:1,2013-04-01T13:30:00Z,30.2583,-88.2131,16.11,1111122 
DISL,ioos:station:DISL:KATA:1,2013-04-01T14:00:00Z,30.2583,-88.2131,15.26,1111122 
DISL,ioos:station:DISL:KATA:1,2013-04-01T14:30:00Z,30.2583,-88.2131,14.82,1111122 
DISL,ioos:station:DISL:KATA:1,2013-04-01T15:00:00Z,30.2583,-88.2131,14.85,1111122 
DISL,ioos:station:DISL:KATA:1,2013-04-01T15:30:00Z,30.2583,-88.2131,14.95,1111122 
DISL,ioos:station:DISL:KATA:1,2013-04-01T16:00:00Z,30.2583,-88.2131,15.36,1111122 
DISL,ioos:station:DISL:KATA:1,2013-04-01T16:30:00Z,30.2583,-88.2131,15.94,1111122 
DISL,ioos:station:DISL:KATA:1,2013-04-01T17:00:00Z,30.2583,-88.2131,16.72,1111122 
DISL,ioos:station:DISL:KATA:1,2013-04-01T17:30:00Z,30.2583,-88.2131,17.52,1111122 
DISL,ioos:station:DISL:KATA:1,2013-04-01T18:00:00Z,30.2583,-88.2131,18.19,1111122 
DISL,ioos:station:DISL:KATA:1,2013-04-01T18:30:00Z,30.2583,-88.2131,18.77,1111122 
DISL,ioos:station:DISL:KATA:1,2013-04-01T19:00:00Z,30.2583,-88.2131,19.14,1111122 
DISL,ioos:station:DISL:KATA:1,2013-04-01T19:30:00Z,30.2583,-88.2131,19.55,1111122 
DISL,ioos:station:DISL:KATA:1,2013-04-01T20:00:00Z,30.2583,-88.2131,19.72,1111122 
DISL,ioos:station:DISL:KATA:1,2013-04-01T20:30:00Z,30.2583,-88.2131,19.17,1111122 
DISL,ioos:station:DISL:KATA:1,2013-04-01T21:00:00Z,30.2583,-88.2131,19.07,1111122 
DISL,ioos:station:DISL:KATA:1,2013-04-01T21:30:00Z,30.2583,-88.2131,19.24,1111122 
DISL,ioos:station:DISL:KATA:1,2013-04-01T22:00:00Z,30.2583,-88.2131,19.38,1111122 
DISL,ioos:station:DISL:KATA:1,2013-04-01T22:30:00Z,30.2583,-88.2131,19.72,1111122 
DISL,ioos:station:DISL:KATA:1,2013-04-01T23:00:00Z,30.2583,-88.2131,19.58,1111122 
DISL,ioos:station:DISL:KATA:1,2013-04-01T23:30:00Z,30.2583,-88.2131,20.36,1111122 
DISL,ioos:station:DISL:KATA:1,2013-04-02T00:00:00Z,30.2583,-88.2131,19.85,1111122 
DISL,ioos:station:DISL:KATA:1,2013-04-02T00:30:00Z,30.2583,-88.2131,19.28,1111122 
DISL,ioos:station:DISL:KATA:1,2013-04-02T01:00:00Z,30.2583,-88.2131,19.49,1111122 
DISL,ioos:station:DISL:KATA:1,2013-04-02T01:30:00Z,30.2583,-88.2131,19.97,1111122 
DISL,ioos:station:DISL:KATA:1,2013-04-02T02:00:00Z,30.2583,-88.2131,20.18,1111122 
DISL,ioos:station:DISL:KATA:1,2013-04-02T02:30:00Z,30.2583,-88.2131,19.83,1111122 
DISL,ioos:station:DISL:KATA:1,2013-04-02T03:00:00Z,30.2583,-88.2131,19.5,1111122 
DISL,ioos:station:DISL:KATA:1,2013-04-02T03:30:00Z,30.2583,-88.2131,19.26,1111122 
DISL,ioos:station:DISL:KATA:1,2013-04-02T04:00:00Z,30.2583,-88.2131,18.45,1111122 
DISL,ioos:station:DISL:KATA:1,2013-04-02T04:30:00Z,30.2583,-88.2131,18.41,1111122 
DISL,ioos:station:DISL:KATA:1,2013-04-02T05:00:00Z,30.2583,-88.2131,18.21,1111122 
DISL,ioos:station:DISL:KATA:1,2013-04-02T05:30:00Z,30.2583,-88.2131,17.87,1111122 
DISL,ioos:station:DISL:KATA:1,2013-04-02T06:00:00Z,30.2583,-88.2131,18.28,1111122 
DISL,ioos:station:DISL:KATA:1,2013-04-02T06:30:00Z,30.2583,-88.2131,18.24,1111122 
DISL,ioos:station:DISL:KATA:1,2013-04-02T07:00:00Z,30.2583,-88.2131,18.55,1111122 
DISL,ioos:station:DISL:KATA:1,2013-04-02T07:30:00Z,30.2583,-88.2131,18.31,1111122 
DISL,ioos:station:DISL:KATA:1,2013-04-02T08:00:00Z,30.2583,-88.2131,18.28,1111122 
DISL,ioos:station:DISL:KATA:1,2013-04-02T08:30:00Z,30.2583,-88.2131,18.14,1111122 
DISL,ioos:station:DISL:KATA:1,2013-04-02T09:00:00Z,30.2583,-88.2131,18.24,1111122 
DISL,ioos:station:DISL:KATA:1,2013-04-02T09:30:00Z,30.2583,-88.2131,17.8,1111122 
DISL,ioos:station:DISL:KATA:1,2013-04-02T10:00:00Z,30.2583,-88.2131,17.67,1111122 
DISL,ioos:station:DISL:KATA:1,2013-04-02T10:30:00Z,30.2583,-88.2131,17.16,1111122 
DISL,ioos:station:DISL:KATA:1,2013-04-02T11:00:00Z,30.2583,-88.2131,16.75,1111122 
DISL,ioos:station:DISL:KATA:1,2013-04-02T11:30:00Z,30.2583,-88.2131,16.35,1111122 
DISL,ioos:station:DISL:KATA:1,2013-04-02T12:00:00Z,30.2583,-88.2131,16.62,1111122 
DISL,ioos:station:DISL:KATA:1,2013-04-02T12:30:00Z,30.2583,-88.2131,16.62,1111122 
DISL,ioos:station:DISL:KATA:1,2013-04-02T13:00:00Z,30.2583,-88.2131,16.68,1111122 
DISL,ioos:station:DISL:KATA:1,2013-04-02T13:30:00Z,30.2583,-88.2131,18.18,1111122 
DISL,ioos:station:DISL:KATA:1,2013-04-02T14:00:00Z,30.2583,-88.2131,17.97,1111122 
DISL,ioos:station:DISL:KATA:1,2013-04-02T14:30:00Z,30.2583,-88.2131,18.88,1111122 
DISL,ioos:station:DISL:KATA:1,2013-04-02T15:00:00Z,30.2583,-88.2131,19.38,1111122 
DISL,ioos:station:DISL:KATA:1,2013-04-02T15:30:00Z,30.2583,-88.2131,18.94,1111122 
DISL,ioos:station:DISL:KATA:1,2013-04-02T16:00:00Z,30.2583,-88.2131,19.14,1111122 
DISL,ioos:station:DISL:KATA:1,2013-04-02T16:30:00Z,30.2583,-88.2131,19.0,1111122 
DISL,ioos:station:DISL:KATA:1,2013-04-02T17:00:00Z,30.2583,-88.2131,19.14,1111122 
DISL,ioos:station:DISL:KATA:1,2013-04-02T17:30:00Z,30.2583,-88.2131,19.21,1111122 
DISL,ioos:station:DISL:KATA:1,2013-04-02T18:00:00Z,30.2583,-88.2131,19.34,1111122 
DISL,ioos:station:DISL:KATA:1,2013-04-02T18:30:00Z,30.2583,-88.2131,19.61,1111122 
DISL,ioos:station:DISL:KATA:1,2013-04-02T19:00:00Z,30.2583,-88.2131,19.61,1111122 
DISL,ioos:station:DISL:KATA:1,2013-04-02T19:30:00Z,30.2583,-88.2131,19.95,1111122 
DISL,ioos:station:DISL:KATA:1,2013-04-02T20:00:00Z,30.2583,-88.2131,20.02,1111122 
DISL,ioos:station:DISL:KATA:1,2013-04-02T20:30:00Z,30.2583,-88.2131,19.78,1111122 
DISL,ioos:station:DISL:KATA:1,2013-04-02T21:00:00Z,30.2583,-88.2131,20.02,1111122 
DISL,ioos:station:DISL:KATA:1,2013-04-02T21:30:00Z,30.2583,-88.2131,20.16,1111122 
DISL,ioos:station:DISL:KATA:1,2013-04-02T22:00:00Z,30.2583,-88.2131,20.16,1111122 
DISL,ioos:station:DISL:KATA:1,2013-04-02T22:30:00Z,30.2583,-88.2131,20.05,1111122 
DISL,ioos:station:DISL:KATA:1,2013-04-02T23:00:00Z,30.2583,-88.2131,19.85,1111122 
DISL,ioos:station:DISL:KATA:1,2013-04-02T23:30:00Z,30.2583,-88.2131,19.85,1111122 
DISL,ioos:station:DISL:KATA:1,2013-04-03T00:00:00Z,30.2583,-88.2131,19.85,1111122 
DISL,ioos:station:DISL:KATA:1,2013-04-03T00:30:00Z,30.2583,-88.2131,19.86,1111122 
DISL,ioos:station:DISL:KATA:1,2013-04-03T01:00:00Z,30.2583,-88.2131,19.86,1111122 
DISL,ioos:station:DISL:KATA:1,2013-04-03T01:30:00Z,30.2583,-88.2131,19.83,1111122 
DISL,ioos:station:DISL:KATA:1,2013-04-03T02:00:00Z,30.2583,-88.2131,19.93,1111122 
DISL,ioos:station:DISL:KATA:1,2013-04-03T02:30:00Z,30.2583,-88.2131,19.86,1111122 
DISL,ioos:station:DISL:KATA:1,2013-04-03T03:00:00Z,30.2583,-88.2131,20.03,1111122 
DISL,ioos:station:DISL:KATA:1,2013-04-03T03:30:00Z,30.2583,-88.2131,20.03,1111122 
DISL,ioos:station:DISL:KATA:1,2013-04-03T04:00:00Z,30.2583,-88.2131,20.1,1111122 
DISL,ioos:station:DISL:KATA:1,2013-04-03T04:30:00Z,30.2583,-88.2131,20.03,1111122 
DISL,ioos:station:DISL:KATA:1,2013-04-03T05:00:00Z,30.2583,-88.2131,19.86,1111122 
DISL,ioos:station:DISL:KATA:1,2013-04-03T05:30:00Z,30.2583,-88.2131,19.76,1111122 
DISL,ioos:station:DISL:KATA:1,2013-04-03T06:00:00Z,30.2583,-88.2131,19.59,1111122 
DISL,ioos:station:DISL:KATA:1,2013-04-03T06:30:00Z,30.2583,-88.2131,19.73,1111122 
DISL,ioos:station:DISL:KATA:1,2013-04-03T07:00:00Z,30.2583,-88.2131,19.96,1111122 
DISL,ioos:station:DISL:KATA:1,2013-04-03T07:30:00Z,30.2583,-88.2131,19.66,1111122 
DISL,ioos:station:DISL:KATA:1,2013-04-03T08:00:00Z,30.2583,-88.2131,19.76,1111122 
DISL,ioos:station:DISL:KATA:1,2013-04-03T08:30:00Z,30.2583,-88.2131,19.56,1111122 
DISL,ioos:station:DISL:KATA:1,2013-04-03T09:00:00Z,30.2583,-88.2131,19.29,1111122 
DISL,ioos:station:DISL:KATA:1,2013-04-03T09:30:00Z,30.2583,-88.2131,19.15,1111122 
DISL,ioos:station:DISL:KATA:1,2013-04-03T10:00:00Z,30.2583,-88.2131,18.82,1111122 
DISL,ioos:station:DISL:KATA:1,2013-04-03T10:30:00Z,30.2583,-88.2131,18.41,1111122 
DISL,ioos:station:DISL:KATA:1,2013-04-03T11:00:00Z,30.2583,-88.2131,17.94,1111122 
DISL,ioos:station:DISL:KATA:1,2013-04-03T11:30:00Z,30.2583,-88.2131,17.06,1111122 
DISL,ioos:station:DISL:KATA:1,2013-04-03T12:00:00Z,30.2583,-88.2131,16.28,1111122 
DISL,ioos:station:DISL:KATA:1,2013-04-03T12:30:00Z,30.2583,-88.2131,15.94,1111122 
DISL,ioos:station:DISL:KATA:1,2013-04-03T13:00:00Z,30.2583,-88.2131,15.94,1111122 
DISL,ioos:station:DISL:KATA:1,2013-04-03T13:30:00Z,30.2583,-88.2131,16.15,1111122 
DISL,ioos:station:DISL:KATA:1,2013-04-03T14:00:00Z,30.2583,-88.2131,16.06,1111122 
DISL,ioos:station:DISL:KATA:1,2013-04-03T14:30:00Z,30.2583,-88.2131,15.78,1111122 
DISL,ioos:station:DISL:KATA:1,2013-04-03T15:00:00Z,30.2583,-88.2131,15.68,1111122 
DISL,ioos:station:DISL:KATA:1,2013-04-03T15:30:00Z,30.2583,-88.2131,15.55,1111122 
DISL,ioos:station:DISL:KATA:1,2013-04-03T16:00:00Z,30.2583,-88.2131,15.21,1111122 
DISL,ioos:station:DISL:KATA:1,2013-04-03T16:30:00Z,30.2583,-88.2131,14.94,1111122 
DISL,ioos:station:DISL:KATA:1,2013-04-03T17:00:00Z,30.2583,-88.2131,14.67,1111122 
DISL,ioos:station:DISL:KATA:1,2013-04-03T17:30:00Z,30.2583,-88.2131,14.67,1111122 
DISL,ioos:station:DISL:KATA:1,2013-04-03T18:00:00Z,30.2583,-88.2131,14.53,1111122 
DISL,ioos:station:DISL:KATA:1,2013-04-03T18:30:00Z,30.2583,-88.2131,14.84,1111122 
DISL,ioos:station:DISL:KATA:1,2013-04-03T19:00:00Z,30.2583,-88.2131,15.55,1111122 
DISL,ioos:station:DISL:KATA:1,2013-04-03T19:30:00Z,30.2583,-88.2131,17.35,1111122 
DISL,ioos:station:DISL:KATA:1,2013-04-03T20:00:00Z,30.2583,-88.2131,16.89,1111122 
DISL,ioos:station:DISL:KATA:1,2013-04-03T20:30:00Z,30.2583,-88.2131,17.16,1111122 
DISL,ioos:station:DISL:KATA:1,2013-04-03T21:00:00Z,30.2583,-88.2131,17.19,1111122 
DISL,ioos:station:DISL:KATA:1,2013-04-03T21:30:00Z,30.2583,-88.2131,17.39,1111122 
DISL,ioos:station:DISL:KATA:1,2013-04-03T22:00:00Z,30.2583,-88.2131,17.5,1111122 
DISL,ioos:station:DISL:KATA:1,2013-04-03T22:30:00Z,30.2583,-88.2131,17.36,1111122 
DISL,ioos:station:DISL:KATA:1,2013-04-03T23:00:00Z,30.2583,-88.2131,17.5,1111122 
DISL,ioos:station:DISL:KATA:1,2013-04-03T23:30:00Z,30.2583,-88.2131,17.46,1111122 
DISL,ioos:station:DISL:KATA:1,2013-04-04T00:00:00Z,30.2583,-88.2131,17.29,1111122 
DISL,ioos:station:DISL:KATA:1,2013-04-04T00:30:00Z,30.2583,-88.2131,17.09,1111122 
DISL,ioos:station:DISL:KATA:1,2013-04-04T01:00:00Z,30.2583,-88.2131,16.65,1111122 
DISL,ioos:station:DISL:KATA:1,2013-04-04T01:30:00Z,30.2583,-88.2131,16.45,1111122 
DISL,ioos:station:DISL:KATA:1,2013-04-04T02:00:00Z,30.2583,-88.2131,15.8,1111122 
DISL,ioos:station:DISL:KATA:1,2013-04-04T02:30:00Z,30.2583,-88.2131,15.26,1111122 
DISL,ioos:station:DISL:KATA:1,2013-04-04T03:00:00Z,30.2583,-88.2131,15.07,1111122 
DISL,ioos:station:DISL:KATA:1,2013-04-04T03:30:00Z,30.2583,-88.2131,14.8,1111122 
DISL,ioos:station:DISL:KATA:1,2013-04-04T04:00:00Z,30.2583,-88.2131,14.84,1111122 
DISL,ioos:station:DISL:KATA:1,2013-04-04T04:30:00Z,30.2583,-88.2131,14.9,1111122 
DISL,ioos:station:DISL:KATA:1,2013-04-04T05:00:00Z,30.2583,-88.2131,14.87,1111122 
DISL,ioos:station:DISL:KATA:1,2013-04-04T05:30:00Z,30.2583,-88.2131,14.53,1111122 
DISL,ioos:station:DISL:KATA:1,2013-04-04T06:00:00Z,30.2583,-88.2131,14.53,1111122 
DISL,ioos:station:DISL:KATA:1,2013-04-04T06:30:00Z,30.2583,-88.2131,14.16,1111122 
DISL,ioos:station:DISL:KATA:1,2013-04-04T07:00:00Z,30.2583,-88.2131,14.19,1111122 
DISL,ioos:station:DISL:KATA:1,2013-04-04T07:30:00Z,30.2583,-88.2131,14.36,1111122 
DISL,ioos:station:DISL:KATA:1,2013-04-04T08:00:00Z,30.2583,-88.2131,14.7,1111122 
DISL,ioos:station:DISL:KATA:1,2013-04-04T08:30:00Z,30.2583,-88.2131,14.87,1111122 
DISL,ioos:station:DISL:KATA:1,2013-04-04T09:00:00Z,30.2583,-88.2131,15.28,1111122 
DISL,ioos:station:DISL:KATA:1,2013-04-04T09:30:00Z,30.2583,-88.2131,15.41,1111122 
DISL,ioos:station:DISL:KATA:1,2013-04-04T10:00:00Z,30.2583,-88.2131,15.38,1111122 
DISL,ioos:station:DISL:KATA:1,2013-04-04T10:30:00Z,30.2583,-88.2131,15.28,1111122 
DISL,ioos:station:DISL:KATA:1,2013-04-04T11:00:00Z,30.2583,-88.2131,15.17,1111122 
DISL,ioos:station:DISL:KATA:1,2013-04-04T11:30:00Z,30.2583,-88.2131,15.17,1111122 
DISL,ioos:station:DISL:KATA:1,2013-04-04T12:00:00Z,30.2583,-88.2131,14.97,1111122 
DISL,ioos:station:DISL:KATA:1,2013-04-04T12:30:00Z,30.2583,-88.2131,14.67,1111122 
DISL,ioos:station:DISL:KATA:1,2013-04-04T13:00:00Z,30.2583,-88.2131,14.16,1111122 
DISL,ioos:station:DISL:KATA:1,2013-04-04T13:30:00Z,30.2583,-88.2131,14.29,1111122 
DISL,ioos:station:DISL:KATA:1,2013-04-04T14:00:00Z,30.2583,-88.2131,14.53,1111122 
DISL,ioos:station:DISL:KATA:1,2013-04-04T14:30:00Z,30.2583,-88.2131,14.46,1111122 
DISL,ioos:station:DISL:KATA:1,2013-04-04T15:00:00Z,30.2583,-88.2131,14.96,1111122 
DISL,ioos:station:DISL:KATA:1,2013-04-04T15:30:00Z,30.2583,-88.2131,15.53,1111122 
DISL,ioos:station:DISL:KATA:1,2013-04-04T16:00:00Z,30.2583,-88.2131,15.83,1111122 
DISL,ioos:station:DISL:KATA:1,2013-04-04T16:30:00Z,30.2583,-88.2131,16.0,1111122 
DISL,ioos:station:DISL:KATA:1,2013-04-04T17:00:00Z,30.2583,-88.2131,16.41,1111122 
DISL,ioos:station:DISL:KATA:1,2013-04-04T17:30:00Z,30.2583,-88.2131,16.17,1111122 
DISL,ioos:station:DISL:KATA:1,2013-04-04T18:00:00Z,30.2583,-88.2131,16.24,1111122 
DISL,ioos:station:DISL:KATA:1,2013-04-04T18:30:00Z,30.2583,-88.2131,16.28,1111122 
DISL,ioos:station:DISL:KATA:1,2013-04-04T19:00:00Z,30.2583,-88.2131,16.68,1111122 
DISL,ioos:station:DISL:KATA:1,2013-04-04T19:30:00Z,30.2583,-88.2131,17.22,1111122 
DISL,ioos:station:DISL:KATA:1,2013-04-04T20:00:00Z,30.2583,-88.2131,16.88,1111122 
DISL,ioos:station:DISL:KATA:1,2013-04-04T20:30:00Z,30.2583,-88.2131,16.61,1111122 
DISL,ioos:station:DISL:KATA:1,2013-04-04T21:00:00Z,30.2583,-88.2131,16.65,1111122 
DISL,ioos:station:DISL:KATA:1,2013-04-04T21:30:00Z,30.2583,-88.2131,16.89,1111122 
DISL,ioos:station:DISL:KATA:1,2013-04-04T22:00:00Z,30.2583,-88.2131,17.33,1111122 
DISL,ioos:station:DISL:KATA:1,2013-04-04T22:30:00Z,30.2583,-88.2131,17.32,1111122 
DISL,ioos:station:DISL:KATA:1,2013-04-04T23:00:00Z,30.2583,-88.2131,17.43,1111122 
DISL,ioos:station:DISL:KATA:1,2013-04-04T23:30:00Z,30.2583,-88.2131,17.67,1111122 
DISL,ioos:station:DISL:KATA:1,2013-04-05T00:00:00Z,30.2583,-88.2131,18.07,1111122 
DISL,ioos:station:DISL:KATA:1,2013-04-05T00:30:00Z,30.2583,-88.2131,17.5,1111122 
DISL,ioos:station:DISL:KATA:1,2013-04-05T01:00:00Z,30.2583,-88.2131,16.89,1111122 
DISL,ioos:station:DISL:KATA:1,2013-04-05T01:30:00Z,30.2583,-88.2131,16.58,1111122 
DISL,ioos:station:DISL:KATA:1,2013-04-05T02:00:00Z,30.2583,-88.2131,16.17,1111122 
DISL,ioos:station:DISL:KATA:1,2013-04-05T02:30:00Z,30.2583,-88.2131,15.63,1111122 
DISL,ioos:station:DISL:KATA:1,2013-04-05T03:00:00Z,30.2583,-88.2131,15.47,1111122 
DISL,ioos:station:DISL:KATA:1,2013-04-05T03:30:00Z,30.2583,-88.2131,14.52,1111122 
DISL,ioos:station:DISL:KATA:1,2013-04-05T04:00:00Z,30.2583,-88.2131,14.12,1111122 
DISL,ioos:station:DISL:KATA:1,2013-04-05T04:30:00Z,30.2583,-88.2131,13.92,1111122 
DISL,ioos:station:DISL:KATA:1,2013-04-05T05:00:00Z,30.2583,-88.2131,14.02,1111122 
DISL,ioos:station:DISL:KATA:1,2013-04-05T05:30:00Z,30.2583,-88.2131,13.41,1111122 
DISL,ioos:station:DISL:KATA:1,2013-04-05T06:00:00Z,30.2583,-88.2131,13.34,1111122 
DISL,ioos:station:DISL:KATA:1,2013-04-05T06:30:00Z,30.2583,-88.2131,13.05,1111122 
DISL,ioos:station:DISL:KATA:1,2013-04-05T07:00:00Z,30.2583,-88.2131,12.67,1111122 
DISL,ioos:station:DISL:KATA:1,2013-04-05T07:30:00Z,30.2583,-88.2131,12.64,1111122 
DISL,ioos:station:DISL:KATA:1,2013-04-05T08:00:00Z,30.2583,-88.2131,12.6,1111122 
DISL,ioos:station:DISL:KATA:1,2013-04-05T08:30:00Z,30.2583,-88.2131,12.37,1111122 
DISL,ioos:station:DISL:KATA:1,2013-04-05T09:00:00Z,30.2583,-88.2131,11.96,1111122 
DISL,ioos:station:DISL:KATA:1,2013-04-05T09:30:00Z,30.2583,-88.2131,11.83,1111122 
DISL,ioos:station:DISL:KATA:1,2013-04-05T10:00:00Z,30.2583,-88.2131,11.32,1111122 
DISL,ioos:station:DISL:KATA:1,2013-04-05T10:30:00Z,30.2583,-88.2131,11.43,1111122 
DISL,ioos:station:DISL:KATA:1,2013-04-05T11:00:00Z,30.2583,-88.2131,11.15,1111122 
DISL,ioos:station:DISL:KATA:1,2013-04-05T11:30:00Z,30.2583,-88.2131,11.19,1111122 
DISL,ioos:station:DISL:KATA:1,2013-04-05T12:00:00Z,30.2583,-88.2131,11.29,1111122 
DISL,ioos:station:DISL:KATA:1,2013-04-05T12:30:00Z,30.2583,-88.2131,11.12,1111122 
DISL,ioos:station:DISL:KATA:1,2013-04-05T13:00:00Z,30.2583,-88.2131,11.32,1111122 
DISL,ioos:station:DISL:KATA:1,2013-04-05T13:30:00Z,30.2583,-88.2131,11.22,1111122 
DISL,ioos:station:DISL:KATA:1,2013-04-05T14:00:00Z,30.2583,-88.2131,11.22,1111122 
DISL,ioos:station:DISL:KATA:1,2013-04-05T14:30:00Z,30.2583,-88.2131,11.63,1111122 
DISL,ioos:station:DISL:KATA:1,2013-04-05T15:00:00Z,30.2583,-88.2131,11.46,1111122 
DISL,ioos:station:DISL:KATA:1,2013-04-05T15:30:00Z,30.2583,-88.2131,11.93,1111122 
DISL,ioos:station:DISL:KATA:1,2013-04-05T16:00:00Z,30.2583,-88.2131,12.06,1111122 
DISL,ioos:station:DISL:KATA:1,2013-04-05T16:30:00Z,30.2583,-88.2131,12.33,1111122 
DISL,ioos:station:DISL:KATA:1,2013-04-05T17:00:00Z,30.2583,-88.2131,12.33,1111122 
DISL,ioos:station:DISL:KATA:1,2013-04-05T17:30:00Z,30.2583,-88.2131,12.94,1111122 
DISL,ioos:station:DISL:KATA:1,2013-04-05T18:00:00Z,30.2583,-88.2131,13.28,1111122 
DISL,ioos:station:DISL:KATA:1,2013-04-05T18:30:00Z,30.2583,-88.2131,14.39,1111122 
DISL,ioos:station:DISL:KATA:1,2013-04-05T19:00:00Z,30.2583,-88.2131,15.03,1111122 
DISL,ioos:station:DISL:KATA:1,2013-04-05T19:30:00Z,30.2583,-88.2131,16.01,1111122 
DISL,ioos:station:DISL:KATA:1,2013-04-05T20:00:00Z,30.2583,-88.2131,16.14,1111122 
DISL,ioos:station:DISL:KATA:1,2013-04-05T20:30:00Z,30.2583,-88.2131,16.78,1111122 
DISL,ioos:station:DISL:KATA:1,2013-04-05T21:00:00Z,30.2583,-88.2131,17.19,1111122 
DISL,ioos:station:DISL:KATA:1,2013-04-05T21:30:00Z,30.2583,-88.2131,17.19,1111122 
DISL,ioos:station:DISL:KATA:1,2013-04-05T22:00:00Z,30.2583,-88.2131,17.67,1111122 
DISL,ioos:station:DISL:KATA:1,2013-04-05T22:30:00Z,30.2583,-88.2131,18.14,1111122 
DISL,ioos:station:DISL:KATA:1,2013-04-05T23:00:00Z,30.2583,-88.2131,18.98,1111122 
DISL,ioos:station:DISL:KATA:1,2013-04-05T23:30:00Z,30.2583,-88.2131,18.67,1111122 
DISL,ioos:station:DISL:KATA:1,2013-04-06T00:00:00Z,30.2583,-88.2131,18.44,1111122 
DISL,ioos:station:DISL:KATA:1,2013-04-06T00:30:00Z,30.2583,-88.2131,17.67,1111122 
DISL,ioos:station:DISL:KATA:1,2013-04-06T01:00:00Z,30.2583,-88.2131,17.56,1111122 
DISL,ioos:station:DISL:KATA:1,2013-04-06T01:30:00Z,30.2583,-88.2131,17.23,1111122 
DISL,ioos:station:DISL:KATA:1,2013-04-06T02:00:00Z,30.2583,-88.2131,17.23,1111122 
DISL,ioos:station:DISL:KATA:1,2013-04-06T02:30:00Z,30.2583,-88.2131,17.06,1111122 
DISL,ioos:station:DISL:KATA:1,2013-04-06T03:00:00Z,30.2583,-88.2131,16.92,1111122 
DISL,ioos:station:DISL:KATA:1,2013-04-06T03:30:00Z,30.2583,-88.2131,16.83,1111122 
DISL,ioos:station:DISL:KATA:1,2013-04-06T04:00:00Z,30.2583,-88.2131,16.49,1111122 
DISL,ioos:station:DISL:KATA:1,2013-04-06T04:30:00Z,30.2583,-88.2131,16.29,1111122 
DISL,ioos:station:DISL:KATA:1,2013-04-06T05:00:00Z,30.2583,-88.2131,15.99,1111122 
DISL,ioos:station:DISL:KATA:1,2013-04-06T05:30:00Z,30.2583,-88.2131,15.99,1111122 
DISL,ioos:station:DISL:KATA:1,2013-04-06T06:00:00Z,30.2583,-88.2131,15.96,1111122 
DISL,ioos:station:DISL:KATA:1,2013-04-06T06:30:00Z,30.2583,-88.2131,15.92,1111122 
DISL,ioos:station:DISL:KATA:1,2013-04-06T07:00:00Z,30.2583,-88.2131,15.48,1111122 
DISL,ioos:station:DISL:KATA:1,2013-04-06T07:30:00Z,30.2583,-88.2131,15.48,1111122 
DISL,ioos:station:DISL:KATA:1,2013-04-06T08:00:00Z,30.2583,-88.2131,15.14,1111122 
DISL,ioos:station:DISL:KATA:1,2013-04-06T08:30:00Z,30.2583,-88.2131,14.87,1111122 
DISL,ioos:station:DISL:KATA:1,2013-04-06T09:00:00Z,30.2583,-88.2131,14.6,1111122 
DISL,ioos:station:DISL:KATA:1,2013-04-06T09:30:00Z,30.2583,-88.2131,14.6,1111122 
DISL,ioos:station:DISL:KATA:1,2013-04-06T10:00:00Z,30.2583,-88.2131,14.71,1111122 
DISL,ioos:station:DISL:KATA:1,2013-04-06T10:30:00Z,30.2583,-88.2131,14.74,1111122 
DISL,ioos:station:DISL:KATA:1,2013-04-06T11:00:00Z,30.2583,-88.2131,14.88,1111122 
DISL,ioos:station:DISL:KATA:1,2013-04-06T11:30:00Z,30.2583,-88.2131,14.64,1111122 
DISL,ioos:station:DISL:KATA:1,2013-04-06T12:00:00Z,30.2583,-88.2131,15.32,1111122 
DISL,ioos:station:DISL:KATA:1,2013-04-06T12:30:00Z,30.2583,-88.2131,16.67,1111122 
DISL,ioos:station:DISL:KATA:1,2013-04-06T13:00:00Z,30.2583,-88.2131,17.07,1111122 
DISL,ioos:station:DISL:KATA:1,2013-04-06T13:30:00Z,30.2583,-88.2131,16.85,1111122 
DISL,ioos:station:DISL:KATA:1,2013-04-06T14:00:00Z,30.2583,-88.2131,16.95,1111122 
DISL,ioos:station:DISL:KATA:1,2013-04-06T14:30:00Z,30.2583,-88.2131,16.82,1111122 
DISL,ioos:station:DISL:KATA:1,2013-04-06T15:00:00Z,30.2583,-88.2131,16.68,1111122 
DISL,ioos:station:DISL:KATA:1,2013-04-06T15:30:00Z,30.2583,-88.2131,16.58,1111122 
DISL,ioos:station:DISL:KATA:1,2013-04-06T16:00:00Z,30.2583,-88.2131,16.23,1111122 
DISL,ioos:station:DISL:KATA:1,2013-04-06T16:30:00Z,30.2583,-88.2131,16.63,1111122 
DISL,ioos:station:DISL:KATA:1,2013-04-06T17:00:00Z,30.2583,-88.2131,16.97,1111122 
DISL,ioos:station:DISL:KATA:1,2013-04-06T17:30:00Z,30.2583,-88.2131,17.21,1111122 
DISL,ioos:station:DISL:KATA:1,2013-04-06T18:00:00Z,30.2583,-88.2131,17.48,1111122 
DISL,ioos:station:DISL:KATA:1,2013-04-06T18:30:00Z,30.2583,-88.2131,17.71,1111122 
DISL,ioos:station:DISL:KATA:1,2013-04-06T19:00:00Z,30.2583,-88.2131,17.71,1111122 
DISL,ioos:station:DISL:KATA:1,2013-04-06T19:30:00Z,30.2583,-88.2131,17.95,1111122 
DISL,ioos:station:DISL:KATA:1,2013-04-06T20:00:00Z,30.2583,-88.2131,17.99,1111122 
DISL,ioos:station:DISL:KATA:1,2013-04-06T20:30:00Z,30.2583,-88.2131,18.09,1111122 
DISL,ioos:station:DISL:KATA:1,2013-04-06T21:00:00Z,30.2583,-88.2131,18.22,1111122 
DISL,ioos:station:DISL:KATA:1,2013-04-06T21:30:00Z,30.2583,-88.2131,18.46,1111122 
DISL,ioos:station:DISL:KATA:1,2013-04-06T22:00:00Z,30.2583,-88.2131,18.32,1111122 
DISL,ioos:station:DISL:KATA:1,2013-04-06T22:30:00Z,30.2583,-88.2131,18.29,1111122 
DISL,ioos:station:DISL:KATA:1,2013-04-06T23:00:00Z,30.2583,-88.2131,18.36,1111122 
DISL,ioos:station:DISL:KATA:1,2013-04-06T23:30:00Z,30.2583,-88.2131,18.2,1111122 